Theta_e
295 289 286 289 291 290 289 287 286 287 292 291 290 290 293 293 292 292 292 293 294 295 298 300 305 311 318 322 328 329 328 328 329 330 330 330 329 330 329 328 328 328 328 326
289 286 291 293 292 290 288 286 285 288 291 288 288 289 291 293 293 294 294 294 294 295 297 297 300 305 312 317 323 328 329 328 328 328 329 330 330 330 330 330 328 328 327 326
287 290 295 293 290 289 286 286 285 287 288 288 285 284 288 291 293 294 294 295 296 296 297 297 297 300 302 308 314 320 328 329 329 328 328 325 328 328 327 327 327 327 327 326
290 293 292 290 289 289 285 289 289 288 283 280 284 278 284 288 290 292 294 294 295 296 295 297 297 296 296 298 301 302 307 323 329 328 326 325 324 323 327 327 328 327 326 325
289 290 290 289 290 291 287 290 289 287 284 281 281 279 282 285 287 291 293 293 293 294 296 297 300 301 302 303 303 304 304 302 307 328 327 326 324 325 323 327 326 326 325 325
290 292 291 291 290 291 291 288 287 285 282 277 281 280 280 284 288 289 290 293 294 297 297 298 299 301 303 306 306 307 306 303 302 305 325 325 324 323 322 324 324 324 323 323
287 288 290 292 288 290 289 283 277 276 276 276 280 279 282 287 290 291 292 293 295 296 296 298 298 299 301 301 306 306 304 300 301 301 312 323 323 324 323 323 324 323 321 318
282 280 288 290 289 286 286 284 279 273 274 276 279 278 283 289 289 290 292 294 294 295 297 297 298 299 300 301 305 305 305 306 308 308 310 317 321 320 322 323 324 323 322 321
282 283 289 290 291 291 286 283 286 279 270 274 278 281 287 290 290 290 288 292 294 295 296 297 298 299 299 300 301 305 305 306 307 309 310 310 314 316 318 320 321 321 319 317
287 282 288 289 290 289 287 289 281 280 270 270 276 277 281 285 287 287 289 290 292 294 295 295 296 297 298 299 300 303 304 304 303 304 305 306 308 310 312 312 311 310 310 310
288 285 283 287 285 285 285 284 284 283 280 274 272 277 284 288 289 289 289 289 291 294 294 294 295 295 296 297 298 299 300 301 302 302 301 303 304 304 303 304 305 304 305 305
289 285 279 283 287 288 287 285 284 279 276 277 279 280 287 288 289 289 288 290 291 293 294 294 294 294 294 294 295 296 296 296 298 300 298 297 298 299 298 298 299 299 299 299
290 282 272 279 284 286 283 285 286 284 281 279 275 280 288 288 289 291 290 291 292 293 292 293 293 293 292 292 292 292 293 293 294 295 295 294 294 294 293 293 294 294 293 293
294 285 281 278 281 286 283 285 287 285 279 280 280 283 284 287 287 290 291 291 292 292 293 292 292 292 292 292 291 291 292 292 291 291 290 289 289 289 289 289 289 289 289 288
291 278 283 283 285 285 284 284 286 285 285 281 284 284 288 287 288 290 291 291 291 292 292 291 291 291 291 290 290 290 289 288 288 287 286 285 285 285 285 284 284 283 283 284
290 277 282 278 285 285 282 285 285 286 286 285 284 285 290 288 287 289 291 291 291 291 292 292 292 291 290 290 288 287 286 285 286 284 283 283 282 282 282 282 282 282 282 282
284 280 277 277 284 284 277 281 285 285 287 287 283 289 289 288 290 289 291 291 292 293 293 292 292 292 291 289 288 285 284 283 282 281 281 281 281 281 281 281 281 281 281 281
283 280 279 276 275 270 282 288 289 288 288 289 289 291 291 290 290 291 291 292 292 293 292 293 293 291 289 286 285 284 282 281 280 280 279 279 279 279 279 279 279 279 280 280
288 283 280 276 266 278 283 287 286 285 285 288 289 289 288 290 290 289 292 292 294 295 295 294 292 290 285 284 284 282 280 280 279 278 277 277 278 277 277 275 277 278 278 279
288 286 281 272 270 271 280 285 288 289 280 287 288 287 287 288 283 287 290 292 293 293 291 289 287 285 283 281 282 280 278 277 276 277 277 277 277 275 274 276 276 277 278 278
283 284 280 279 270 276 284 286 287 279 281 283 287 287 286 285 287 288 286 284 284 284 284 284 283 282 280 280 280 277 276 275 275 275 275 275 276 274 275 275 276 276 276 277
283 281 281 281 278 275 284 284 284 284 283 284 286 286 285 286 287 284 281 280 279 278 278 279 278 277 278 278 277 275 274 274 274 274 273 273 274 275 275 275 275 275 275 274
277 282 280 284 281 286 283 285 288 288 286 285 284 285 286 286 285 283 280 278 277 276 276 276 275 274 274 275 275 272 272 273 273 272 273 273 274 274 275 274 273 273 273 272
280 284 280 280 282 285 286 287 288 287 286 286 285 285 286 286 284 282 279 278 276 275 274 274 273 272 271 271 273 273 273 273 274 273 273 273 273 272 273 273 273 272 271 271
281 284 279 277 282 285 285 285 285 285 284 284 284 285 286 284 283 281 278 276 276 275 273 273 273 272 271 271 270 270 271 272 273 272 272 272 271 271 271 272 272 272 272 272
281 282 282 280 285 284 284 283 283 283 283 283 283 282 283 284 283 280 277 276 275 273 273 272 272 271 270 269 267 268 269 272 272 271 270 270 270 270 270 269 269 274 274 276
Wind_Speed
4 5 7 9 9 4 7 6 6 0 2 4 6 7 9 7 5 8 9 8 8 9 10 9 9 9 8 10 15 16 16 14 11 9 9 8 9 8 5 5 8 9 9 9
4 5 8 8 6 4 3 6 4 2 0 2 3 9 9 7 8 9 10 9 10 6 7 9 9 9 10 9 12 15 16 15 12 10 8 7 7 5 7 6 6 7 9 10
7 7 8 9 7 8 3 6 5 5 2 3 3 8 7 9 7 6 9 8 9 11 10 9 9 11 7 8 9 9 14 15 14 12 7 3 3 2 5 5 6 8 9 9
6 6 12 7 5 6 5 4 7 9 4 4 3 7 7 5 9 7 12 10 11 10 4 5 6 4 4 1 3 1 4 7 12 13 11 14 10 9 7 7 6 6 6 7
7 8 9 6 9 7 6 7 7 4 4 2 3 1 9 5 4 8 11 10 9 8 8 8 7 6 4 3 2 2 2 2 4 12 13 12 11 8 4 6 8 8 7 8
3 0 3 6 4 7 8 9 10 6 4 2 6 6 7 5 9 6 3 5 8 9 8 6 5 5 4 4 3 3 4 6 4 5 10 12 12 10 6 6 7 6 5 6
3 3 2 4 10 6 8 7 4 3 2 7 3 4 8 6 9 8 8 6 7 8 7 6 6 5 4 2 2 2 3 6 6 6 7 11 11 10 11 8 7 7 5 3
7 2 6 2 7 10 10 9 8 9 6 5 3 9 8 10 5 4 6 7 7 7 7 7 5 4 4 5 3 2 2 2 2 5 4 6 8 5 4 7 5 7 7 7
6 2 2 3 2 10 5 5 6 8 3 4 6 8 9 9 8 6 4 6 7 8 8 8 8 7 5 3 3 0 2 3 5 6 5 5 5 6 4 4 4 4 4 4
4 6 3 1 2 2 5 8 3 3 5 3 6 7 8 4 11 5 7 10 8 6 7 7 6 6 5 5 3 3 3 4 4 5 5 5 6 6 7 5 6 6 5 4
5 6 1 3 7 8 4 4 2 5 6 7 1 9 8 11 8 10 10 6 9 9 7 5 5 4 4 3 4 4 4 6 6 6 5 7 8 10 8 8 7 7 7 7
6 7 5 9 3 5 3 5 6 7 4 3 4 12 3 5 3 6 3 7 6 5 6 6 6 5 4 4 4 4 4 5 6 6 8 8 8 8 8 8 8 7 8 7
10 3 4 3 4 3 4 4 3 4 4 9 8 11 4 3 5 5 4 5 6 7 7 7 7 6 5 5 5 5 5 5 6 7 9 9 9 8 8 8 8 9 9 8
11 4 9 11 6 8 8 8 11 7 5 6 11 13 2 3 3 1 3 6 8 8 9 7 6 7 7 6 6 6 6 5 6 8 9 9 7 7 7 6 8 8 7 7
8 7 5 4 6 6 6 9 13 16 15 9 15 17 15 7 6 8 6 6 7 8 9 9 8 7 7 7 6 6 6 6 5 8 9 8 6 6 6 7 7 7 7 7
1 1 5 4 6 6 3 8 11 16 8 14 4 20 9 4 3 2 8 8 8 9 9 8 8 9 9 10 9 7 6 6 7 7 8 6 6 6 6 6 6 7 7 6
5 6 4 3 1 6 9 10 10 6 7 10 15 28 3 2 8 8 8 10 13 14 12 13 15 14 10 9 9 8 8 7 7 7 6 6 6 7 6 5 6 7 6 5
6 6 3 3 4 3 7 4 13 17 8 8 14 16 9 4 5 8 6 8 12 12 9 12 11 11 11 9 9 10 9 8 8 7 7 6 6 6 6 5 7 6 4 5
4 6 4 6 4 5 5 6 6 9 9 4 12 6 3 6 6 4 8 6 11 12 14 10 10 11 10 12 11 11 9 8 8 7 6 6 5 5 5 5 6 4 4 6
4 6 6 3 7 10 7 4 1 6 6 4 3 3 3 5 1 2 14 15 15 9 6 9 11 12 14 12 14 13 9 7 6 5 6 6 5 4 5 5 6 4 4 5
6 2 5 4 4 8 8 5 0 7 7 5 6 5 4 3 6 4 7 8 7 7 8 9 10 10 10 11 13 12 9 8 5 5 6 5 4 5 5 5 4 3 4 6
8 8 5 3 3 11 6 3 10 6 3 6 6 5 5 6 4 3 2 4 6 8 9 8 10 10 8 9 12 11 9 6 6 6 5 5 3 3 3 5 5 6 4 5
3 7 8 10 8 3 4 3 3 4 6 5 3 4 4 5 5 5 6 5 4 6 7 6 9 11 7 6 8 13 8 6 5 6 6 5 4 3 4 6 5 4 5 5
3 2 4 5 4 5 5 1 5 4 5 4 3 4 5 6 6 5 5 5 5 6 7 6 10 9 7 6 9 8 6 7 8 7 6 5 5 5 4 4 4 4 3 4
5 7 6 3 2 5 6 4 3 2 2 4 4 5 6 5 6 5 5 5 6 5 4 8 10 10 9 7 7 6 7 6 6 6 6 5 4 4 4 4 2 3 1 2
5 7 6 4 3 5 4 5 3 4 3 4 4 3 5 6 8 6 5 5 6 7 6 5 6 11 11 9 7 6 5 6 7 7 5 4 4 3 3 3 3 7 7 7
Wind_Direction
211 124 177 184 185 182 151 166 142 76 263 142 208 257 256 260 223 244 242 238 248 235 229 215 207 190 186 173 173 181 180 190 185 190 191 194 205 203 202 192 184 183 184 191
71 197 203 178 197 163 133 153 130 89 290 150 199 260 257 242 228 201 221 233 235 243 243 222 210 195 180 181 180 179 185 185 190 189 198 201 198 202 204 207 200 196 189 192
146 214 194 169 168 154 176 162 170 149 134 5 21 295 253 252 241 227 218 209 215 215 228 222 198 199 181 185 182 177 186 187 190 188 185 176 174 164 188 196 207 207 192 189
175 231 183 149 161 130 143 137 126 121 101 209 128 272 294 243 247 210 233 218 221 219 191 189 169 130 152 137 57 191 179 185 195 182 185 193 197 200 200 202 201 205 197 190
209 155 151 153 170 142 190 138 132 118 96 82 263 55 267 278 247 244 233 231 225 233 190 140 120 115 94 70 349 342 310 209 191 195 195 192 197 198 173 175 182 197 196 192
129 182 95 158 80 121 148 82 44 46 75 303 232 174 268 216 214 239 208 244 181 144 126 123 110 95 78 36 3 306 272 267 238 195 198 195 195 191 175 171 182 189 193 196
79 54 346 113 82 5 101 87 42 23 353 223 7 241 241 254 241 198 192 174 161 148 143 131 120 115 94 50 335 321 300 256 247 217 199 188 190 194 189 169 182 181 179 178
145 188 170 191 153 173 167 162 158 181 195 229 9 240 256 245 237 222 185 184 155 142 133 133 124 95 76 35 12 23 7 18 354 201 178 191 190 189 190 171 176 186 188 195
130 173 53 80 109 146 221 196 167 106 32 68 231 293 288 258 248 221 172 127 167 166 165 149 145 144 139 102 19 275 69 56 50 72 86 82 117 140 149 134 145 158 150 159
159 115 9 143 154 65 161 154 103 7 121 253 280 270 239 278 252 251 215 203 197 189 175 168 165 155 149 150 141 99 112 94 75 70 72 75 69 83 71 63 75 80 77 79
142 105 268 134 212 157 127 178 122 120 150 166 216 260 224 212 212 233 246 199 191 196 193 168 141 138 147 121 119 117 105 107 92 86 84 90 79 74 75 72 67 69 69 63
172 119 164 198 254 206 137 184 152 158 238 217 163 254 245 136 129 180 216 197 189 175 155 148 152 151 145 140 109 96 80 85 90 92 86 81 80 83 84 80 77 75 74 60
175 184 78 50 335 353 187 171 187 123 77 212 141 257 360 90 66 46 126 140 153 146 156 173 173 170 158 130 116 109 98 82 61 79 88 80 78 80 79 79 81 79 81 75
148 144 177 189 191 149 178 192 201 169 186 186 232 263 255 75 55 105 168 177 175 185 186 185 176 177 168 153 142 125 104 94 91 88 86 82 79 84 85 83 80 76 70 77
143 160 124 135 118 125 168 186 195 207 209 185 252 248 254 216 253 242 215 178 192 209 209 195 187 181 170 149 137 123 106 96 97 97 94 90 81 75 75 74 77 82 78 77
28 98 98 342 143 148 201 203 204 219 204 244 277 269 103 168 125 205 223 202 221 233 229 201 184 177 169 158 151 130 118 103 100 95 93 86 80 74 76 83 82 77 71 68
102 122 90 217 120 71 288 183 197 192 193 210 224 247 59 248 233 247 232 211 218 227 214 195 195 184 167 153 142 134 120 108 97 101 95 93 92 90 73 62 66 67 64 63
124 97 92 165 54 172 262 243 188 205 195 210 254 264 275 292 270 250 258 221 229 234 213 207 186 170 164 141 127 120 120 115 111 100 91 79 79 84 81 75 66 59 55 54
72 110 103 145 188 293 272 202 166 166 230 266 255 311 347 315 301 309 5 317 259 235 217 197 162 152 128 133 129 122 117 118 117 115 108 95 84 82 78 72 65 45 57 55
51 72 118 124 150 206 237 234 226 94 260 215 125 96 345 343 357 280 333 326 310 269 155 133 133 134 133 137 131 125 121 113 110 113 106 90 96 99 87 76 61 34 31 53
136 111 155 171 211 284 248 224 301 122 233 162 161 156 140 127 206 282 324 358 7 36 68 93 110 121 125 129 125 120 119 111 101 91 89 73 70 83 79 89 82 82 65 56
160 149 171 136 208 259 192 108 165 183 91 162 188 189 186 216 224 174 78 67 47 61 70 78 98 99 104 117 118 118 114 117 107 102 94 85 58 75 92 110 90 70 84 77
218 175 173 186 205 249 181 102 107 128 140 198 204 208 219 217 222 182 161 136 105 105 96 84 110 105 77 72 121 126 132 125 119 114 110 114 123 96 64 63 72 73 53 60
278 167 146 94 212 174 167 98 96 138 158 177 190 194 197 246 219 206 167 162 154 154 142 142 130 123 107 104 108 112 133 144 141 136 132 125 105 82 69 70 65 74 63 53
195 132 154 278 305 73 25 54 51 66 162 186 208 224 236 231 231 205 191 174 172 164 150 154 147 138 130 121 114 125 138 151 142 130 128 129 110 115 108 93 80 78 65 111
191 168 170 205 166 122 161 198 190 186 200 222 220 258 245 221 227 185 187 181 163 162 157 149 145 144 145 139 137 148 160 160 153 145 140 132 131 130 106 95 88 56 54 57